This is the latest recevied weather packets stored in our database for station/object K1ABC. If no packets are shown the sender has not sent any weather packets the latest 10 day(s).
| Time | Temp. | Humidity | Pressure | Rain* | Wind** | Luminosity | Snow |
|---|---|---|---|---|---|---|---|
| 1778044015 | 18.33° C | 61% | 1008.4 hPa | 0 mm | - | - | - |
| 1778043631 | 18.33° C | 62% | 1008.6 hPa | 0 mm | - | - | - |
| 1778043382 | 18.33° C | 62% | 1008.6 hPa | 0 mm | - | - | - |
| 1778042241 | 18.33° C | 61% | 1008.5 hPa | 0 mm | - | - | - |
| 1778039740 | 19.44° C | 58% | 1008.4 hPa | 0 mm | - | - | - |
| 1778039412 | 19.44° C | 57% | 1008.4 hPa | 0 mm | - | - | - |
| 1778038639 | 19.44° C | 57% | 1008.3 hPa | 0 mm | - | - | - |
| 1778038508 | 19.44° C | 57% | 1008.2 hPa | 0 mm | - | - | - |
| 1778038140 | 19.44° C | 57% | 1008.3 hPa | 0 mm | - | - | - |
| 1778037397 | 20° C | 56% | 1008.3 hPa | 0 mm | - | - | - |
| 1778036833 | 20° C | 56% | 1008.2 hPa | 0 mm | - | - | - |
| 1778036333 | 20° C | 56% | 1008.2 hPa | 0 mm | - | - | - |
| 1778034942 | 20.56° C | 54% | 1008.2 hPa | 0 mm | - | - | - |
| 1778033756 | 21.11° C | 53% | 1008.3 hPa | 0 mm | - | - | - |
| 1778033309 | 21.11° C | 52% | 1008.3 hPa | 0 mm | - | - | - |
| 1778031954 | 21.11° C | 53% | 1008.3 hPa | 0 mm | - | - | - |
| 1778031829 | 21.11° C | 53% | 1008.3 hPa | 0 mm | - | - | - |
| 1778031706 | 21.11° C | 52% | 1008.3 hPa | 0 mm | - | - | - |
| 1778031459 | 21.11° C | 52% | 1008.3 hPa | 0 mm | - | - | - |
| 1778031005 | 21.11° C | 52% | 1008.3 hPa | 0 mm | - | - | - |
| 1778029858 | 21.67° C | 51% | 1008.3 hPa | 0 mm | - | - | - |
| 1778029728 | 21.67° C | 51% | 1008.2 hPa | 0 mm | - | - | - |
| 1778029226 | 21.67° C | 50% | 1007.5 hPa | 0 mm | - | - | - |
| 1778028765 | 21.67° C | 50% | 1007.3 hPa | 0 mm | - | - | - |
| 1778027615 | 22.22° C | 50% | 1006.9 hPa | 0 mm | - | - | - |
* Rain latest hour (hover to see other rain measurements)
** Current wind speed in m/s (hover to see current wind gust speed)